Theta_e
288 288 289 290 290 289 288 288 286 285 286 286 283 283 285 285 282 280 285 287 285 286 289 291 292 293 293 294 295 296 296 292 287 286 285 285 285 284 284 285 285 285 285 286 286 287 287 288 288 288 289 289 289 288 287 286 284 284 283 282 282 282 282 283 283 284 284 284 284 284 283 283 282 282 282 282 281 280 280 280 280 280 280 280 279 279 279
287 288 288 289 287 287 288 287 286 287 286 286 286 286 287 286 284 286 286 286 286 288 290 292 293 295 294 293 292 289 284 283 285 284 284 283 283 283 283 283 284 284 285 285 286 286 287 287 287 288 288 288 289 289 290 290 289 286 282 282 282 282 281 282 283 283 283 283 283 283 283 282 282 282 282 281 280 280 280 280 280 280 279 279 279 278 278
283 286 287 287 286 285 283 286 287 287 287 287 287 287 287 287 286 287 287 286 285 291 291 289 287 284 285 285 284 283 282 282 282 282 281 281 282 282 282 283 283 284 284 284 285 285 286 286 287 287 287 288 288 288 289 289 289 289 285 283 282 281 282 283 283 282 282 282 282 282 283 283 282 281 281 280 280 279 279 279 279 278 279 278 278 278 278
279 284 284 285 285 285 283 283 285 285 285 283 285 285 288 286 284 286 286 284 283 282 282 285 283 281 280 281 281 280 280 281 280 280 280 280 281 281 282 282 282 283 283 284 284 285 285 286 286 286 287 287 287 287 287 287 288 288 286 283 283 282 283 283 282 282 282 282 281 282 282 282 282 281 281 280 279 279 278 278 278 278 278 278 278 278 278
276 282 283 283 283 281 278 280 284 286 286 287 287 287 288 288 286 282 280 278 276 279 281 279 280 279 279 279 282 279 280 280 280 280 280 280 280 281 281 281 282 282 282 283 283 284 285 286 286 286 286 286 286 286 286 286 287 287 286 284 283 283 283 282 282 281 281 281 281 281 281 282 281 281 280 280 279 278 278 278 278 278 278 278 278 278 277
275 280 280 281 277 271 273 286 285 286 284 283 282 281 277 277 280 279 280 277 279 279 279 277 278 278 278 279 283 282 280 280 280 281 281 281 281 281 281 282 282 283 283 283 283 283 284 285 285 286 286 285 285 285 285 286 286 286 285 284 282 282 282 282 281 281 281 281 281 281 281 281 280 280 279 279 279 279 278 278 278 278 277 277 277 277 276
274 277 277 274 269 271 281 281 280 281 279 277 277 276 276 277 278 280 279 278 277 278 279 279 279 280 281 281 283 281 282 282 281 281 282 282 282 282 281 281 282 282 283 283 283 284 284 285 285 285 285 285 285 285 285 285 285 284 284 282 281 280 280 280 279 279 280 280 280 280 280 280 280 279 279 278 278 278 278 278 278 277 277 276 276 276 276
276 273 272 266 267 279 279 278 279 280 278 277 276 275 275 276 278 279 278 278 278 279 279 279 281 280 281 282 283 282 282 283 282 282 282 283 283 282 282 282 283 283 283 283 283 284 285 285 285 285 285 285 284 284 285 284 284 283 283 282 282 281 280 280 279 279 278 279 279 279 279 279 279 279 278 278 278 278 277 277 277 277 276 276 276 275 275
269 270 270 270 276 276 279 277 275 277 272 273 272 269 275 276 277 279 278 278 278 279 280 279 280 281 280 279 283 282 282 283 283 283 283 283 283 283 283 283 283 284 283 284 284 285 285 285 285 285 286 286 285 284 284 284 283 282 282 282 282 281 280 280 280 279 279 279 279 278 278 278 278 278 278 277 277 277 276 276 276 275 275 275 276 275 274
279 272 271 271 270 267 269 272 276 280 280 280 279 277 273 277 277 280 278 276 277 278 279 279 279 280 276 274 277 281 282 283 283 284 284 284 284 283 283 283 283 284 284 284 285 285 285 285 285 285 286 285 284 284 284 284 283 283 283 283 281 280 279 279 279 279 279 279 279 278 277 277 277 277 276 276 276 276 276 275 274 274 275 274 274 274 273
277 274 271 270 269 271 272 271 277 279 280 281 279 276 269 278 276 278 279 276 278 278 278 278 280 276 272 272 276 280 281 282 283 282 283 283 283 283 282 282 282 283 283 283 284 284 283 283 284 285 285 285 284 284 284 284 283 283 284 284 282 280 280 279 278 278 278 278 279 278 277 277 276 276 276 276 276 274 274 275 274 274 273 273 273 272 273
274 272 269 267 272 267 273 272 275 277 278 277 278 268 269 276 277 280 280 277 278 278 279 279 277 275 271 273 276 280 282 282 282 282 282 282 282 282 282 282 282 283 283 282 282 282 282 282 284 284 284 284 284 284 284 284 283 284 284 284 282 280 279 279 278 277 277 277 277 277 277 276 275 275 274 272 272 273 273 273 272 272 271 272 271 271 272
269 272 268 270 271 277 274 271 275 276 277 274 266 265 269 274 275 278 278 276 277 278 277 278 274 277 279 279 280 281 281 281 281 282 282 282 281 281 281 281 283 282 282 281 281 281 281 282 282 283 283 283 283 283 283 283 283 284 285 284 281 280 279 277 276 276 275 276 276 275 275 274 274 273 272 273 271 271 270 270 270 270 270 270 270 270 270
267 268 268 268 272 276 273 275 277 277 274 266 266 270 275 275 276 276 278 278 278 277 277 277 278 278 279 280 281 280 280 280 280 281 281 280 280 281 281 282 281 280 280 280 280 280 280 281 281 282 282 281 281 281 282 282 283 285 285 284 282 280 278 277 276 275 275 275 275 275 273 274 273 273 271 271 271 270 270 269 270 269 269 269 269 269 269
267 266 265 265 262 271 273 273 273 275 266 266 274 275 275 277 276 278 278 279 279 279 278 279 278 277 277 277 278 278 279 279 279 279 279 279 279 279 279 279 280 280 278 278 278 278 278 279 280 280 280 279 279 280 280 281 284 284 285 284 283 281 279 277 276 276 275 276 276 276 275 275 274 272 271 271 271 271 270 269 269 268 268 269 269 269 268
264 264 263 262 266 270 274 273 269 273 276 277 277 277 275 278 279 279 279 279 279 279 279 277 277 276 276 277 277 277 277 277 277 278 278 278 278 278 278 278 278 279 277 277 276 276 277 277 278 278 278 277 278 278 279 282 283 284 284 284 284 282 280 278 277 276 276 276 275 275 275 275 274 273 271 270 271 271 271 270 269 268 268 268 269 268 268
269 264 269 272 274 274 276 277 276 277 277 277 276 275 276 276 277 280 278 278 278 277 276 275 275 275 276 276 276 276 276 276 276 276 276 276 276 276 276 276 277 277 275 274 274 274 275 275 276 276 277 276 277 276 278 280 280 281 283 284 284 283 282 281 279 278 276 276 275 275 274 275 274 273 271 270 270 270 270 270 270 269 269 269 268 268 268
275 275 275 277 276 275 277 278 277 275 275 275 275 274 274 276 278 277 278 277 276 275 275 274 274 274 274 274 274 275 275 274 275 275 275 274 274 274 275 275 275 274 273 272 271 271 272 273 274 275 275 276 274 275 277 277 278 281 283 282 281 281 282 282 281 279 277 276 275 275 274 275 275 274 272 271 271 270 270 270 270 270 269 269 268 268 267
270 265 275 274 274 276 275 275 276 275 275 275 276 276 277 278 278 276 275 275 274 274 273 273 273 273 274 273 273 273 273 273 273 273 272 272 272 272 272 273 273 271 270 269 269 269 270 271 272 273 273 273 274 274 275 276 278 280 278 277 277 278 279 280 281 280 277 276 275 274 274 274 274 274 273 272 271 271 270 270 270 270 270 269 268 268 266
270 269 274 275 275 275 276 275 275 275 276 277 276 277 278 278 276 275 274 273 272 272 271 273 272 272 272 271 271 271 271 271 271 271 271 270 270 270 271 271 270 269 268 267 268 268 268 270 270 270 270 271 272 273 274 276 276 275 274 274 274 274 275 277 278 279 278 275 274 274 273 273 273 273 272 272 271 271 270 270 270 270 270 269 269 269 267
272 274 274 274 275 275 275 276 277 277 277 276 276 276 275 273 273 272 271 272 272 272 272 271 270 269 270 270 270 270 270 270 270 270 269 269 269 269 268 268 267 266 266 266 267 267 267 268 268 268 268 269 270 272 273 273 271 270 270 271 272 272 273 275 276 278 277 276 275 275 274 273 273 274 273 272 272 272 273 273 272 271 270 270 270 270 270
268 269 272 275 269 269 274 274 274 275 274 274 275 274 272 272 271 271 271 271 271 271 270 270 269 268 269 269 269 268 268 268 268 268 268 268 268 267 267 267 266 266 266 265 265 265 265 266 266 266 266 267 267 268 268 268 268 267 268 269 270 271 272 273 275 277 276 275 274 274 274 273 272 272 274 276 274 272 272 274 276 276 275 272 271 271 270
269 274 276 276 276 275 275 276 277 276 274 274 274 274 272 271 270 270 270 269 270 269 269 269 268 268 268 268 268 267 267 267 268 268 267 266 266 266 266 265 264 264 264 265 264 264 264 264 264 264 264 264 264 265 266 266 266 266 267 268 269 270 271 272 274 275 276 275 274 274 273 273 272 271 270 273 277 277 276 275 276 277 277 277 276 275 272
277 278 278 278 276 274 276 277 275 272 272 272 272 270 269 269 269 269 269 269 267 267 268 268 268 267 267 267 266 265 266 266 266 266 266 266 266 265 265 264 264 263 263 263 262 262 263 263 262 262 262 262 263 263 264 265 266 266 267 267 267 268 270 271 273 274 275 275 275 273 272 272 271 271 270 269 270 276 277 276 276 277 277 278 277 277 276
276 279 278 278 276 276 276 273 271 269 268 268 268 268 268 268 268 268 267 267 267 266 266 266 266 266 265 265 265 265 265 265 266 265 265 265 265 264 264 263 262 262 261 262 261 261 261 261 260 260 260 261 261 262 263 264 264 264 264 265 265 266 268 270 272 274 275 275 274 273 272 271 270 270 270 270 269 269 272 277 277 276 277 277 278 277 277
278 277 276 275 272 273 273 271 270 265 266 266 266 266 268 268 267 266 266 266 265 265 265 264 264 264 265 264 264 264 264 264 264 265 263 263 262 262 261 261 261 261 261 260 260 260 259 259 259 259 259 260 261 261 262 262 263 263 264 265 267 268 270 271 273 275 275 276 274 273 272 272 271 270 270 270 270 270 269 269 271 274 277 277 277 277 277
267 267 269 271 272 274 268 267 267 264 265 266 266 266 266 265 265 264 264 263 263 263 263 263 263 263 263 263 263 263 262 263 263 262 262 261 261 261 261 261 260 260 259 259 258 259 259 259 259 259 259 259 260 261 261 262 263 264 265 267 269 271 271 272 273 274 275 276 275 273 272 271 271 270 270 270 270 269 269 268 268 269 270 273 276 278 275
264 263 265 267 270 269 264 264 264 264 264 265 264 264 264 263 261 260 260 261 261 261 262 262 262 261 261 262 261 261 261 260 260 260 260 259 260 260 260 259 259 258 258 258 258 258 258 258 258 258 258 259 261 262 263 264 266 267 267 266 266 266 268 270 272 274 275 276 275 274 272 271 271 270 270 270 269 269 269 269 269 269 270 271 273 276 278
261 262 262 262 263 263 263 263 263 263 262 263 263 262 260 259 259 259 259 261 261 261 261 261 261 261 261 261 260 259 259 259 258 258 258 259 259 259 258 258 257 257 257 257 257 257 257 257 257 257 258 260 262 263 264 264 264 264 264 264 264 265 266 267 268 270 273 276 275 274 273 271 271 270 269 269 269 269 269 269 269 270 270 271 272 273 275
259 260 260 261 262 261 260 260 260 260 260 261 261 259 260 259 258 259 259 260 260 259 260 260 260 259 259 258 258 258 257 257 257 258 258 258 258 257 257 257 257 256 256 255 256 256 257 257 257 258 259 260 261 262 262 262 262 263 263 264 265 265 266 267 268 269 270 272 274 273 272 271 270 269 269 269 269 269 269 269 269 269 270 270 271 271 271
257 258 258 260 259 258 258 258 259 259 259 259 259 258 258 258 257 258 258 259 259 258 258 258 257 257 257 257 257 257 257 257 256 256 256 256 256 256 256 256 255 254 255 255 256 256 257 257 257 258 259 260 261 261 262 262 263 264 265 265 266 267 268 269 271 270 272 273 273 272 270 270 269 268 268 268 268 268 268 269 269 269 270 270 270 270 271
255 256 256 257 257 255 256 257 257 257 257 257 256 255 256 256 255 255 256 256 256 256 256 255 255 255 255 256 256 256 255 255 255 255 255 255 255 255 256 255 256 257 256 256 257 257 257 257 257 258 260 261 262 262 263 263 263 263 263 264 266 267 269 270 271 272 273 273 272 271 269 268 268 268 267 268 268 268 268 269 269 269 269 269 269 270 271
253 255 255 255 253 254 255 255 255 255 255 255 255 256 256 255 255 255 255 256 255 255 254 254 254 255 255 255 254 254 254 254 254 254 254 254 254 255 256 256 256 256 256 257 257 257 258 258 258 260 261 261 261 261 261 261 262 262 262 263 263 263 265 266 267 267 268 270 270 269 269 268 268 268 267 268 268 268 269 269 269 269 269 269 270 271 272
252 252 253 253 252 253 253 252 254 254 254 255 255 255 254 255 254 254 254 254 254 253 253 253 254 254 254 253 253 253 253 253 252 252 253 254 254 255 256 256 257 256 257 257 258 258 259 259 259 258 258 259 259 260 260 260 259 259 259 260 260 261 262 263 265 267 268 269 269 268 268 267 267 267 267 267 268 268 268 268 268 268 268 269 270 270 272
255 254 255 254 254 254 254 253 253 253 252 252 252 252 253 253 253 253 253 253 252 253 254 254 254 253 253 253 252 252 252 252 252 253 253 254 254 255 256 256 256 257 257 257 257 257 257 257 257 257 258 258 258 258 258 258 258 258 258 259 260 261 262 263 265 266 268 269 269 268 267 267 267 266 267 268 268 268 268 268 268 268 268 268 268 269 271
252 252 251 252 252 252 251 252 252 252 252 251 252 252 252 252 252 252 252 252 253 254 254 253 253 252 252 252 252 252 252 253 253 254 254 255 256 257 257 256 255 255 254 254 256 256 257 257 258 258 258 257 257 257 257 258 258 259 259 260 261 262 263 264 265 267 268 269 268 267 267 266 266 267 267 267 267 268 267 267 267 267 267 267 267 268 270
250 251 251 251 252 251 251 251 252 252 252 251 252 251 251 251 252 252 252 252 253 252 252 252 251 251 251 252 253 254 254 254 255 256 256 257 257 256 255 254 254 253 253 253 254 256 256 256 257 258 257 257 257 257 258 260 260 260 261 261 262 262 263 264 266 267 268 268 267 267 266 265 266 266 266 267 267 267 267 266 265 266 266 265 267 267 262
252 252 251 251 251 251 251 251 251 251 251 250 251 251 251 251 251 252 251 252 252 252 252 252 252 252 253 254 254 254 255 256 256 256 256 255 254 253 253 253 253 253 252 252 254 255 255 256 257 257 256 257 257 258 259 261 262 262 262 263 263 264 264 265 266 266 266 266 265 265 265 265 265 265 265 266 266 266 265 265 264 264 264 265 264 261 260
251 252 252 252 251 251 251 251 251 251 250 250 250 250 251 251 251 251 251 251 252 252 252 252 253 254 254 254 254 255 256 255 255 254 253 253 253 253 252 253 253 253 253 255 255 255 256 256 257 257 257 258 258 259 260 262 263 263 263 264 264 265 265 265 264 264 264 264 264 264 265 264 264 264 264 264 264 263 262 262 262 262 263 261 260 260 259
251 251 251 251 250 250 251 251 250 250 250 250 250 250 250 250 250 251 251 251 252 253 254 254 254 254 255 255 254 253 253 253 253 253 252 252 252 252 252 253 254 254 255 256 256 255 256 258 258 257 257 258 259 260 261 262 262 262 262 263 263 263 263 263 263 262 263 263 263 262 263 263 263 262 262 261 261 261 261 261 261 261 260 259 259 258 257
250 251 251 251 250 251 250 250 250 250 250 250 250 250 251 250 251 251 250 251 253 254 255 255 255 255 254 253 252 252 252 253 252 252 252 252 252 251 251 251 254 255 255 255 256 257 257 258 257 257 258 259 259 260 260 261 261 261 261 261 261 261 261 261 261 261 261 261 261 261 261 260 260 260 259 260 259 260 260 260 260 260 259 258 258 257 256
250 250 250 250 250 250 250 250 250 249 249 249 250 250 250 251 251 251 252 253 254 255 256 255 256 254 253 253 252 252 251 251 252 252 252 252 251 251 250 251 255 255 256 257 257 257 257 257 258 258 258 259 259 259 260 260 259 259 260 260 260 260 260 260 260 260 260 260 260 259 259 259 259 258 258 258 259 259 259 259 259 258 258 258 257 256 255
249 249 249 249 249 250 250 250 249 249 249 249 250 250 251 252 252 253 254 255 255 255 255 254 254 253 252 251 250 250 250 251 251 251 252 252 253 252 252 253 255 255 257 257 257 256 256 257 257 258 259 259 259 259 259 259 258 258 258 258 258 259 259 259 259 259 259 259 259 259 259 258 258 258 258 258 258 258 258 258 258 257 257 256 255 255 254
250 250 250 249 249 249 249 248 248 248 248 249 251 252 252 252 253 254 255 255 255 255 254 253 252 252 252 251 250 250 250 250 251 251 251 251 252 253 254 254 255 256 256 256 256 256 256 257 258 258 259 259 259 259 259 258 258 258 258 258 258 258 258 258 258 258 258 258 258 258 258 257 258 258 257 257 257 257 257 257 257 256 255 255 254 254 254
249 250 249 248 248 248 248 248 248 249 250 251 251 251 252 253 254 255 255 255 254 254 254 253 253 252 252 251 251 251 251 252 252 252 251 250 250 251 254 255 255 256 256 256 255 256 256 257 258 258 258 258 258 258 258 258 258 258 258 257 257 257 257 257 257 257 257 257 257 257 257 257 257 257 257 257 256 256 256 255 255 255 254 254 253 253 253
249 249 248 249 248 247 248 249 250 251 251 251 251 252 254 255 255 255 255 255 254 253 253 253 253 253 252 252 252 252 252 252 252 253 253 252 251 252 254 255 255 255 256 255 255 255 255 257 257 257 257 257 257 257 257 257 257 257 257 257 257 257 256 256 256 256 256 256 256 257 256 257 257 257 257 256 256 255 254 254 254 254 253 253 253 253 253
248 248 247 247 247 248 248 249 250 250 250 251 252 253 255 255 255 255 255 255 254 254 253 253 253 253 253 252 252 251 250 251 252 253 253 253 254 254 255 255 255 255 255 254 254 254 255 255 256 256 256 256 256 256 256 256 256 256 256 256 256 256 256 256 256 256 256 256 256 256 256 256 256 255 255 254 254 254 254 253 253 253 253 252 252 252 252
247 247 247 247 247 248 249 249 249 250 252 253 253 254 254 255 255 255 255 255 254 254 254 254 253 253 252 252 252 252 252 251 250 251 253 253 253 254 254 254 254 255 255 254 254 254 255 255 255 255 255 255 255 254 254 255 255 255 255 255 255 255 255 255 255 255 255 255 255 255 255 255 255 255 254 254 254 254 254 253 252 252 252 252 252 251 251
247 247 247 248 248 249 250 251 252 253 253 254 254 254 254 254 254 254 254 254 254 254 254 253 252 252 252 253 253 252 253 253 251 250 253 253 253 253 253 254 254 254 254 253 252 252 254 254 254 254 254 253 253 253 253 254 254 254 254 254 254 254 255 255 255 255 255 254 254 254 254 254 253 253 253 253 253 253 252 252 252 252 252 251 251 251 251
249 249 249 250 250 251 252 253 253 253 254 254 254 254 254 254 253 253 254 254 254 254 254 253 253 252 252 252 252 252 252 252 253 253 253 253 253 253 253 253 253 254 253 252 251 252 252 253 253 253 252 251 251 252 252 252 252 252 253 253 253 253 253 253 254 253 253 253 253 252 252 252 252 252 252 252 252 252 252 251 251 250 250 250 250 250 248
250 250 251 252 252 253 254 254 254 254 254 254 254 255 255 254 253 254 254 254 254 253 253 253 253 253 252 252 252 252 252 252 253 253 253 252 253 253 253 253 253 253 252 252 251 250 251 251 251 252 251 251 251 251 251 250 250 251 251 251 251 251 252 252 252 252 252 252 251 251 251 251 252 252 252 251 251 251 250 250 250 250 250 250 250 249 248
252 252 253 253 254 254 254 254 255 255 255 255 254 254 254 254 253 253 254 254 253 253 253 252 252 253 253 253 253 252 252 253 252 252 253 253 252 252 252 253 252 251 251 251 250 250 251 251 252 252 252 251 250 250 251 251 250 250 250 250 250 250 250 250 250 250 250 250 250 250 251 251 251 251 250 250 250 250 250 250 249 248 247 246 246 245 245
Wind_Speed
16 18 20 20 19 17 15 15 14 17 17 15 17 18 19 16 17 22 15 16 19 15 12 14 17 20 22 21 20 18 16 18 17 15 15 14 14 14 15 14 13 13 14 13 15 16 16 17 18 16 13 11 9 8 8 9 8 9 9 8 11 11 11 13 15 13 12 11 12 11 10 10 12 12 13 13 12 12 13 14 12 14 13 14 13 13 12
15 18 18 19 20 19 15 15 14 16 19 22 24 25 22 21 21 20 21 21 25 18 18 19 20 16 15 14 14 17 19 13 14 15 14 13 14 14 14 13 14 14 14 15 15 15 17 18 19 19 19 19 19 19 18 17 13 7 5 10 11 10 11 13 12 9 10 9 9 10 11 13 14 13 12 12 12 13 13 13 13 12 12 13 14 15 14
9 11 13 15 14 16 16 18 19 19 20 23 23 23 20 19 21 19 23 24 24 14 13 13 15 14 13 15 16 13 12 14 13 14 13 14 13 12 12 12 13 13 15 15 16 17 17 17 17 16 17 17 17 19 19 20 19 17 10 9 8 8 12 12 10 8 9 10 9 11 13 11 10 11 12 11 12 12 12 12 13 12 13 15 15 14 15
10 8 7 10 10 14 17 17 18 20 20 21 18 17 15 16 21 22 22 19 11 10 14 9 13 15 16 14 11 12 11 11 12 12 11 11 12 13 11 11 11 12 14 15 16 16 16 16 17 16 16 15 15 17 18 18 18 18 15 10 10 11 12 11 9 9 9 9 9 12 9 12 11 11 10 10 11 12 12 13 12 12 14 15 14 15 14
11 12 13 8 11 13 14 15 18 22 23 20 16 15 16 14 9 11 8 4 6 7 11 13 14 15 12 13 8 10 11 12 11 11 11 10 9 11 11 12 13 12 10 10 12 13 13 14 16 16 14 14 15 15 16 16 15 16 16 13 12 12 11 9 9 8 7 8 10 10 11 11 9 9 11 11 12 12 15 14 11 13 15 15 16 14 14
10 13 17 12 12 16 14 3 6 3 6 5 7 6 6 8 5 1 6 3 4 8 10 11 11 12 13 11 4 2 7 10 12 11 10 9 7 7 8 9 10 12 11 11 10 9 9 10 11 12 11 11 13 12 12 13 14 16 16 15 11 11 10 8 7 6 7 7 9 9 7 7 8 10 11 14 13 11 9 9 13 14 13 15 14 14 15
13 11 10 12 17 16 5 6 4 5 8 11 4 7 8 7 8 4 7 8 9 8 6 8 8 8 12 12 3 1 10 11 10 10 11 12 11 10 8 9 9 11 12 12 13 12 11 11 12 12 14 13 14 15 14 14 14 15 15 14 13 10 9 8 6 5 5 6 7 6 5 6 7 9 11 9 10 11 11 13 14 15 14 14 13 12 12
8 6 7 13 16 5 8 7 8 2 2 5 7 4 10 8 8 6 6 6 5 7 5 5 6 6 10 9 6 3 13 10 10 11 11 11 10 11 10 11 11 9 10 12 14 13 11 11 12 11 12 13 13 15 14 12 13 12 13 13 12 11 10 8 5 5 5 5 5 4 5 5 8 9 9 10 11 9 8 8 7 7 8 9 11 12 12
10 7 11 18 9 14 12 8 7 5 3 4 1 3 2 6 5 4 2 5 5 5 5 7 7 6 6 6 4 3 6 8 6 7 9 9 8 9 9 9 10 9 7 9 10 10 11 12 13 13 13 14 14 14 14 14 13 12 11 12 13 11 11 10 8 5 4 5 5 4 4 6 8 8 9 9 8 6 8 8 9 10 10 10 10 11 13
10 12 10 10 7 13 1 4 9 5 7 5 5 3 4 7 1 3 2 3 2 3 6 6 8 7 9 9 2 1 1 5 7 6 5 6 6 7 9 9 8 9 9 9 9 9 11 12 12 12 14 14 14 13 13 13 13 14 12 11 11 10 11 10 8 7 5 4 5 5 6 8 9 8 6 4 7 7 10 10 10 10 8 8 8 9 12
9 11 12 8 7 2 6 5 3 8 8 6 2 3 6 4 2 7 5 3 4 5 4 7 4 6 9 10 9 5 7 7 5 8 7 5 7 8 8 10 11 10 10 10 10 10 12 13 13 13 15 14 13 13 13 12 12 13 13 12 11 10 10 9 8 6 5 5 6 7 8 8 7 7 7 8 6 6 7 7 8 7 8 8 8 8 10
7 7 9 11 3 5 2 1 6 6 6 4 3 6 2 5 6 6 6 3 4 5 5 5 2 2 7 10 12 11 8 8 8 8 10 10 8 8 9 7 7 9 9 11 12 12 13 13 13 14 14 14 15 13 13 12 12 14 14 13 12 10 9 8 7 6 5 6 6 6 7 5 5 6 5 5 6 7 6 6 6 7 7 7 9 8 7
9 11 10 6 6 1 2 3 5 7 3 2 7 15 2 9 5 5 6 4 5 5 4 3 3 6 5 9 12 12 10 10 11 8 7 9 9 10 10 10 10 9 9 9 11 13 12 13 14 13 13 14 15 15 14 13 13 14 14 13 12 10 9 8 7 6 5 4 6 5 5 6 5 5 5 7 7 7 7 5 5 6 7 7 8 7 7
8 7 9 10 7 3 2 6 3 4 2 6 11 2 2 3 6 5 7 7 7 5 7 7 7 7 6 6 8 11 12 11 10 12 10 9 9 7 7 10 10 10 10 11 12 12 12 13 13 12 12 14 15 15 14 15 14 13 13 13 12 10 9 8 7 6 5 5 4 5 4 5 6 7 5 6 7 7 7 7 8 7 7 7 7 7 6
1 0 4 6 9 2 5 2 6 2 2 7 4 5 2 5 6 8 7 7 8 6 7 8 7 6 7 7 8 9 10 11 11 10 11 10 10 10 10 10 8 9 11 12 12 13 13 12 11 12 13 15 15 14 15 16 14 13 13 13 13 11 9 8 7 7 6 6 6 4 5 6 8 7 6 7 7 7 7 7 9 9 8 8 7 7 6
7 7 8 6 3 1 1 2 5 5 9 7 5 3 7 5 7 6 6 6 7 7 6 6 5 6 7 8 8 9 9 10 10 9 9 9 9 10 9 9 10 10 11 12 14 14 13 12 11 11 12 15 15 16 17 14 13 14 14 14 13 12 11 9 8 7 7 6 6 5 6 7 7 8 8 8 8 8 8 9 8 9 8 8 8 9 9
7 7 7 6 3 3 7 9 11 9 9 5 3 3 6 8 8 6 4 7 6 5 5 4 5 7 7 9 9 9 10 9 10 10 9 9 10 11 11 10 8 8 11 14 15 16 14 13 12 11 11 13 18 19 16 13 15 16 15 14 13 13 13 11 9 8 6 6 6 6 7 8 9 8 8 9 9 8 9 9 9 10 9 9 10 11 10
7 6 7 10 8 7 13 11 8 6 6 6 5 5 7 7 9 6 8 6 5 4 4 5 6 7 8 9 9 8 8 10 11 10 10 10 10 10 10 9 8 8 10 11 13 16 17 13 11 11 11 12 18 20 17 14 15 15 13 15 16 16 14 12 11 8 7 7 6 7 8 8 9 9 11 10 10 9 10 10 10 10 10 10 10 10 12
9 10 7 8 9 11 10 11 8 5 6 8 7 8 8 9 7 6 5 5 5 5 3 6 8 8 8 7 8 8 8 10 10 11 11 10 10 11 11 10 9 11 10 12 15 16 19 18 11 10 13 13 14 16 17 17 15 13 15 16 17 17 16 15 13 10 9 7 6 7 8 7 7 8 8 9 10 10 11 11 11 10 10 11 11 10 9
10 14 14 13 10 12 10 8 9 12 12 12 10 10 9 7 5 5 5 4 4 2 5 5 4 7 8 8 9 8 8 10 10 11 10 11 10 10 9 9 8 9 11 12 15 17 19 19 15 13 13 15 16 16 16 15 13 15 17 17 16 17 18 15 14 12 10 10 9 7 8 9 9 8 8 10 11 13 13 14 14 13 12 12 13 13 9
9 12 9 11 15 12 12 15 13 13 12 12 11 8 6 4 4 4 3 2 3 3 5 2 3 7 11 8 7 8 9 11 11 11 11 11 11 12 12 10 7 10 11 14 15 16 19 18 17 16 16 15 16 17 15 13 15 16 18 18 17 18 17 14 14 12 10 9 9 9 8 9 10 10 11 12 13 12 11 10 12 14 14 13 12 10 10
12 12 15 12 9 10 10 7 9 10 7 7 9 4 4 3 4 3 4 6 2 3 3 3 4 7 10 10 6 9 10 12 12 13 13 12 13 13 11 9 10 12 13 13 14 16 17 16 15 16 16 17 17 15 14 12 14 16 18 16 15 14 14 14 14 11 9 9 9 9 9 9 9 9 10 14 11 10 9 13 18 16 13 11 10 10 11
12 15 17 14 12 11 12 14 14 9 2 4 6 7 5 3 1 2 3 7 9 8 5 2 5 7 9 11 8 10 11 13 12 12 13 14 14 14 12 12 14 14 14 14 15 18 19 16 15 16 16 18 18 15 11 12 14 17 16 15 14 14 12 12 13 13 11 11 9 8 9 9 8 9 8 9 19 20 14 12 16 21 21 19 17 18 13
19 18 17 12 8 11 12 12 7 2 1 1 3 0 1 1 2 2 3 4 6 10 10 8 3 5 9 10 8 11 14 14 14 13 12 12 13 13 13 12 13 15 16 17 16 18 17 16 15 18 17 19 19 13 9 12 12 15 15 15 15 16 14 14 13 15 12 12 10 9 9 8 8 9 9 8 8 17 22 19 20 22 22 21 20 20 22
17 18 12 7 8 9 7 2 4 4 6 5 2 2 3 3 3 2 4 5 4 7 9 12 10 5 7 12 11 11 13 16 14 12 14 15 15 14 13 13 14 13 15 14 14 13 16 16 18 17 19 22 19 12 13 13 14 16 18 16 16 17 15 16 14 14 13 12 10 9 9 9 9 9 10 10 10 8 11 19 20 20 21 22 21 20 23
12 10 10 7 4 8 5 2 1 7 7 6 3 2 2 2 3 5 6 6 7 5 7 10 13 13 8 11 12 11 12 16 17 15 14 14 15 14 13 13 14 12 13 13 15 15 15 16 19 18 20 21 16 12 15 14 15 16 18 17 17 14 15 13 13 12 12 10 10 9 9 9 9 10 11 11 10 10 9 8 10 14 19 23 22 22 23
10 7 7 8 10 12 5 3 3 6 6 4 3 4 4 4 5 5 6 6 7 8 10 12 11 13 11 9 10 11 12 15 15 15 13 15 16 15 13 12 12 14 14 16 16 18 18 18 17 19 20 22 13 13 14 16 18 17 17 15 14 15 23 20 14 14 13 12 10 9 9 9 9 10 10 9 9 10 10 10 10 11 9 12 18 22 18
6 7 7 3 9 6 5 7 4 4 2 3 5 7 6 5 5 7 10 9 7 6 8 6 8 9 12 11 7 12 11 12 14 16 16 15 14 12 12 13 13 15 15 17 18 16 16 16 17 18 20 16 10 13 14 16 17 15 13 15 17 17 17 19 15 13 13 12 10 9 9 9 9 10 10 9 10 10 9 10 10 9 8 9 10 16 25
6 6 4 1 4 5 5 4 3 4 5 5 5 4 5 7 9 8 9 9 9 10 11 8 6 7 9 12 10 11 13 13 15 16 17 15 14 14 13 14 15 15 17 16 18 15 15 17 17 17 20 15 14 16 17 18 17 16 17 15 14 14 15 15 15 15 16 13 10 9 8 8 8 8 8 9 9 9 9 10 10 9 9 9 9 10 15
8 6 6 4 3 5 6 5 5 7 6 6 7 4 4 7 11 13 11 11 8 12 12 11 11 11 9 12 12 12 13 16 18 17 16 17 16 15 13 14 15 17 14 15 13 14 15 15 17 20 20 15 15 15 17 17 17 17 18 18 16 16 14 15 14 16 16 15 11 9 8 8 7 8 8 9 9 10 10 10 11 10 10 10 11 12 13
9 8 4 2 6 6 6 7 7 6 7 5 6 9 8 5 8 12 14 13 11 11 12 12 13 14 13 12 12 13 15 16 16 17 16 15 15 13 13 13 15 17 17 18 17 15 14 19 16 17 16 15 15 15 15 17 16 16 15 14 14 23 30 31 24 17 15 13 12 9 8 8 8 8 9 9 9 9 9 9 9 10 9 10 11 11 11
7 7 3 3 6 6 7 4 8 9 7 7 8 8 8 9 12 15 14 13 12 11 14 15 15 14 14 12 13 14 15 14 16 15 17 14 14 13 13 14 16 18 19 18 18 17 16 15 19 18 16 17 15 16 13 13 12 14 16 16 16 13 14 20 14 15 13 11 11 9 8 9 9 9 9 9 10 10 9 9 10 10 10 11 11 11 11
8 8 6 10 13 11 10 6 8 14 11 11 11 9 9 8 9 11 12 13 14 14 12 14 14 14 13 13 13 14 15 16 17 18 16 15 14 13 14 14 16 16 16 14 16 14 17 18 20 16 16 14 14 15 16 16 16 14 12 11 13 15 15 17 19 18 18 15 8 8 7 8 9 9 10 10 9 9 9 10 10 10 10 10 10 10 11
1 2 5 4 4 8 12 16 8 10 13 12 9 10 10 9 9 11 13 13 14 15 14 14 14 14 14 14 13 14 15 16 14 12 12 15 15 16 15 17 16 17 16 15 15 15 14 14 16 14 16 16 17 13 12 12 14 14 15 14 14 14 15 15 16 15 15 13 9 8 8 8 9 9 9 9 9 9 9 10 9 10 10 9 9 9 14
4 6 7 6 6 8 9 11 13 13 13 16 16 11 8 10 11 12 13 15 16 16 14 13 14 13 14 13 16 14 14 15 16 16 16 15 15 15 16 17 16 15 15 16 15 17 16 17 17 16 16 14 14 15 15 17 15 14 14 14 15 14 14 14 13 13 14 11 8 8 8 8 8 8 9 10 10 9 9 9 10 10 10 10 9 9 11
4 6 5 6 7 7 8 9 10 11 13 14 15 16 16 13 13 15 16 16 14 14 16 15 14 14 14 14 15 14 14 13 16 16 17 15 17 15 13 14 16 19 21 21 17 16 16 14 16 20 16 15 15 14 16 15 14 14 14 13 13 13 13 13 13 12 12 9 8 9 9 10 10 9 9 9 9 9 9 9 9 9 9 10 9 11 9
4 7 7 8 8 8 9 10 9 11 13 14 15 16 18 16 14 15 14 14 14 14 14 14 13 14 14 15 15 15 15 15 15 15 15 14 12 12 15 17 18 18 17 17 16 13 14 14 19 25 19 14 14 15 17 24 15 13 12 12 12 12 12 12 11 11 10 9 8 7 7 7 7 7 7 9 9 8 9 9 7 8 9 9 10 8 7
6 7 8 8 9 9 10 10 9 11 13 16 15 14 15 16 15 14 14 14 14 14 13 13 14 15 15 15 15 16 16 15 15 14 15 16 15 16 16 14 14 13 13 13 14 14 13 17 25 20 14 13 13 14 17 24 25 17 12 12 11 11 11 11 10 8 6 6 5 7 8 8 8 8 7 7 8 8 8 8 8 10 9 9 7 8 8
8 7 7 8 8 10 11 10 8 9 10 15 17 15 13 14 15 15 14 14 14 14 14 14 15 16 16 16 15 14 14 14 16 18 17 17 15 14 15 15 15 14 14 14 14 13 14 16 16 14 13 13 15 16 18 20 19 11 8 7 9 8 8 6 5 4 3 5 7 7 7 7 7 8 8 7 7 7 6 9 10 8 9 8 9 9 9
9 8 9 9 10 9 10 12 10 10 10 9 12 16 14 13 13 13 14 14 14 14 14 15 15 13 15 15 15 15 16 16 15 15 16 16 15 15 14 14 11 10 11 16 15 12 16 23 18 12 12 12 12 10 10 11 10 6 5 4 3 3 3 3 3 5 5 5 6 6 6 6 7 6 7 7 8 8 8 9 10 9 9 8 8 9 9
9 10 9 9 10 9 10 11 12 10 10 11 11 12 12 12 13 13 14 15 14 14 14 12 14 14 15 15 17 17 16 15 15 15 14 13 12 11 11 13 12 12 13 13 13 14 17 15 12 11 10 10 9 9 8 8 6 5 5 4 4 4 5 5 5 5 5 6 5 6 7 7 8 8 7 8 8 8 8 9 9 9 9 9 9 9 9
10 9 10 10 10 10 10 10 11 11 10 10 11 11 12 12 12 13 14 14 14 12 12 12 13 15 15 14 14 15 15 15 15 14 12 10 11 11 12 12 12 11 18 20 16 14 11 11 10 8 9 9 8 11 10 6 5 5 5 5 6 6 6 6 6 6 6 7 7 7 7 7 8 8 8 8 8 8 9 9 9 8 8 8 9 9 10
9 10 10 10 10 10 10 11 10 12 12 12 11 11 11 10 11 12 13 13 12 12 12 11 12 12 12 12 13 14 13 13 14 14 13 11 10 9 9 11 12 12 21 15 13 10 9 9 9 8 12 10 8 11 9 6 6 6 6 6 7 6 7 7 7 7 7 7 7 7 7 8 8 8 8 8 8 8 9 9 10 8 8 8 9 9 10
11 10 10 11 10 10 10 10 10 10 11 11 10 10 11 12 12 13 11 11 11 11 11 11 11 11 11 11 11 11 12 12 12 11 10 12 13 7 6 10 11 14 20 14 11 9 9 9 8 12 15 13 13 11 7 6 6 6 6 6 6 7 7 7 7 7 7 7 7 7 7 7 7 7 8 9 8 7 7 7 8 8 9 8 8 10 9
10 9 10 10 10 10 10 9 9 11 11 11 12 11 12 12 11 8 9 9 9 9 8 8 9 10 10 10 10 10 10 10 10 10 11 12 13 13 13 13 13 11 14 19 11 10 9 10 13 16 13 15 14 12 7 7 6 6 6 6 7 7 7 7 7 7 8 8 7 7 6 7 7 7 7 7 8 8 8 8 8 9 10 10 9 10 12
10 10 9 10 10 10 10 10 11 10 11 11 12 11 10 7 7 8 6 7 7 7 6 7 8 9 9 10 10 11 10 9 8 7 5 7 9 11 13 14 12 12 19 18 10 10 10 18 19 16 15 15 13 8 7 7 7 7 7 7 7 7 7 7 7 7 7 7 7 7 7 7 7 7 7 7 8 9 9 9 9 8 6 8 8 8 7
10 10 10 9 10 11 11 10 9 9 10 9 7 6 6 6 7 6 6 7 6 7 6 5 6 7 7 8 9 10 11 12 11 5 6 8 8 10 12 16 15 19 16 12 12 11 13 14 16 19 18 16 13 7 7 7 7 7 7 7 7 7 7 7 7 7 7 7 8 8 8 8 8 8 8 9 10 10 9 10 9 8 7 7 7 7 8
10 10 12 12 14 14 12 10 9 9 8 6 7 7 7 6 7 6 6 5 7 6 5 5 6 5 7 6 6 5 6 7 12 11 8 10 9 9 9 8 12 18 17 12 14 14 22 23 22 21 20 16 10 8 8 7 7 7 7 7 7 7 7 7 7 7 7 7 8 8 8 8 8 8 8 9 8 7 7 9 8 7 6 7 6 6 8
10 12 12 11 10 11 9 8 7 6 5 6 7 6 6 6 6 5 5 6 7 6 5 5 6 5 5 6 6 6 5 4 3 6 9 9 9 9 9 10 14 15 11 9 10 9 17 22 21 21 19 13 9 8 8 8 8 8 8 8 8 7 7 7 7 7 8 8 8 8 8 9 9 9 10 10 8 8 7 8 7 6 6 7 7 5 6
9 8 7 7 6 7 6 6 5 5 5 5 5 5 5 5 4 4 5 5 6 6 5 5 5 6 6 6 6 6 6 7 7 7 7 8 8 8 8 8 8 12 12 9 9 9 11 16 16 16 12 9 9 9 9 8 8 8 7 8 8 7 8 8 8 10 8 8 8 8 8 8 8 9 8 8 7 7 7 7 7 8 11 7 5 6 8
8 8 7 7 6 6 7 6 5 6 4 5 4 4 4 4 4 5 5 6 6 6 5 6 5 5 6 6 6 6 6 7 7 8 7 8 7 8 10 8 9 10 10 9 9 9 9 9 9 10 10 9 9 9 9 9 8 9 8 8 8 7 7 8 7 8 8 7 7 7 7 6 7 7 7 7 7 7 7 6 6 6 5 5 6 6 6
9 8 6 4 5 5 5 4 4 3 3 4 4 3 3 4 4 4 5 7 5 5 6 6 7 6 6 6 7 7 7 7 7 6 7 8 8 7 8 9 8 9 9 9 9 9 8 8 9 10 10 9 8 8 8 11 9 9 9 9 8 9 9 8 8 8 8 8 7 7 7 7 6 8 7 7 7 7 6 6 6 6 8 8 9 9 9
Wind_Direction
257 261 265 264 268 260 262 259 260 258 260 263 260 253 252 250 248 263 269 266 267 259 240 248 256 265 268 276 291 306 331 16 37 41 35 27 18 9 8 2 359 357 351 346 345 347 345 346 348 346 343 338 327 310 289 280 267 257 249 231 234 230 228 227 227 221 217 217 219 218 210 206 205 202 198 197 191 187 191 196 195 195 193 191 188 194 194
256 259 256 258 257 265 265 265 266 263 262 260 256 259 256 254 260 264 267 264 262 270 273 262 267 285 306 327 360 21 37 31 30 34 29 22 13 6 2 356 350 348 347 345 346 345 348 348 347 347 346 344 342 340 337 333 323 296 206 224 227 230 230 234 233 227 223 221 217 210 206 207 206 201 198 193 190 193 195 194 193 191 190 191 192 191 187
292 280 275 277 278 278 272 264 261 261 258 260 261 267 273 276 268 267 263 264 267 279 317 348 25 27 17 20 26 33 27 27 25 25 19 11 7 0 355 353 348 343 343 343 344 347 346 347 346 345 341 340 340 340 338 334 330 327 316 279 266 246 246 245 240 228 220 218 208 211 214 209 204 198 197 193 193 194 192 191 191 188 187 191 193 188 187
281 281 277 269 272 270 272 274 272 272 270 267 260 258 257 258 264 264 269 268 285 3 343 341 22 22 22 14 18 22 21 17 20 17 11 8 357 354 349 345 345 345 342 343 342 340 340 341 343 343 340 339 341 339 335 330 327 324 316 287 270 259 250 251 240 229 223 214 207 216 207 209 202 198 192 191 194 193 190 190 192 188 194 195 190 190 190
260 271 268 287 293 300 280 264 256 255 259 262 269 262 262 271 306 304 294 4 27 342 1 3 358 6 0 4 8 17 17 16 15 12 0 358 351 349 341 342 343 340 338 334 332 331 335 340 340 336 334 334 336 334 328 322 322 324 321 302 280 271 265 257 249 234 223 214 216 213 210 206 197 191 192 194 195 191 196 195 183 191 197 190 196 192 189
286 291 289 296 290 261 261 327 22 350 284 301 288 317 17 8 28 352 96 111 19 25 20 16 341 352 343 330 309 65 28 12 3 360 355 350 342 335 335 337 334 333 333 332 329 324 320 324 328 324 327 326 324 323 320 322 329 330 329 319 298 283 282 272 258 240 228 221 222 220 209 199 193 194 194 200 197 195 189 183 194 198 195 196 193 192 192
275 282 288 281 248 259 276 94 34 67 75 54 73 70 31 22 31 49 80 50 35 28 17 12 339 313 328 326 268 210 29 20 7 353 343 342 341 338 331 340 333 328 329 326 325 328 332 331 328 330 331 333 329 328 332 331 333 335 332 325 315 304 294 288 282 262 246 235 235 226 203 198 198 204 205 204 196 195 191 194 195 197 195 195 196 192 190
273 255 244 257 254 270 118 98 40 9 83 35 45 106 66 18 29 33 40 44 34 5 348 339 334 319 312 314 269 320 12 15 353 345 338 335 332 335 337 330 329 323 323 325 322 320 322 326 325 327 325 327 329 325 326 329 330 332 331 326 320 318 307 300 287 265 252 252 248 229 204 198 203 208 205 202 201 195 194 199 200 195 203 198 193 191 187
255 245 250 256 304 295 271 278 359 41 3 344 88 261 41 66 332 23 22 1 354 338 325 329 315 310 301 298 288 80 9 341 342 325 317 315 322 322 324 325 318 312 303 311 314 311 317 323 326 326 328 328 326 325 328 330 331 328 332 330 326 319 308 303 295 276 251 238 235 220 205 203 210 209 203 204 200 184 192 196 193 196 199 196 195 189 185
223 259 270 275 280 266 262 159 248 266 224 248 235 229 239 104 42 229 105 332 298 294 272 304 303 295 329 322 258 108 319 333 312 305 284 294 300 309 312 314 312 316 320 319 318 320 318 323 325 326 326 324 323 323 324 326 329 326 329 326 320 310 303 299 289 281 259 237 231 211 199 209 210 208 203 196 196 184 193 191 194 198 188 192 194 191 189
256 252 249 253 265 284 121 270 240 244 251 246 218 187 230 132 153 241 175 221 230 236 257 271 293 346 333 310 304 326 332 318 311 302 295 294 300 303 311 316 321 324 327 324 324 327 327 324 328 329 323 322 321 319 321 324 326 322 322 323 320 307 295 286 277 264 249 231 222 212 209 209 197 197 196 197 189 177 192 191 196 181 181 187 190 191 195
249 276 270 270 256 233 199 198 251 233 257 252 161 284 254 131 217 226 197 253 242 242 220 229 232 325 307 309 307 311 315 308 305 304 306 310 308 310 313 315 318 322 322 330 328 330 329 325 326 327 325 322 320 318 319 322 323 319 316 315 307 294 287 284 272 254 232 224 220 208 210 197 184 192 171 158 174 182 191 186 180 176 182 183 185 191 185
260 252 267 286 276 171 209 277 275 275 248 95 291 270 321 329 285 213 196 235 238 229 229 231 205 240 227 268 285 297 304 309 305 302 301 303 317 320 322 321 326 323 325 329 325 321 324 324 325 324 324 321 319 319 317 318 317 312 309 309 304 296 289 287 281 270 258 240 232 225 199 185 173 169 174 177 167 171 176 175 165 172 178 181 182 188 185
225 238 250 250 275 224 146 282 194 267 16 275 251 241 298 276 278 251 198 218 237 217 219 228 222 239 261 271 280 293 297 298 303 307 313 314 311 308 310 316 322 321 323 324 321 320 321 323 320 320 322 319 313 313 313 310 308 306 307 306 303 298 290 281 274 266 254 248 230 215 184 166 170 179 174 164 172 172 168 167 175 181 181 183 185 182 184
328 21 278 282 268 228 114 241 350 281 126 222 291 302 257 218 249 255 244 205 227 214 231 231 233 260 272 274 278 281 289 294 299 303 307 312 309 314 318 315 317 324 321 320 320 319 319 319 319 319 320 312 308 308 305 303 306 306 307 306 302 299 291 283 270 258 247 228 217 194 189 184 178 179 166 160 166 166 171 174 178 179 181 185 183 189 187
268 235 241 229 206 237 265 23 277 286 277 264 253 277 294 288 255 241 240 229 216 214 212 228 256 258 268 275 276 279 284 290 295 298 298 299 305 307 308 310 317 328 321 318 318 315 313 312 313 314 312 305 302 301 296 301 306 308 308 306 303 300 295 284 274 259 241 231 214 198 189 182 183 174 174 170 168 174 176 179 187 190 189 180 185 191 194
231 212 234 246 264 311 288 282 273 259 259 266 238 226 260 287 277 222 209 231 228 196 210 236 248 267 258 265 272 283 286 294 295 296 301 304 307 307 305 310 320 324 320 318 312 305 303 304 304 304 304 300 301 298 299 311 312 308 304 306 309 304 301 294 280 268 246 232 215 200 195 183 184 185 177 171 176 182 177 188 189 195 197 190 195 195 186
260 246 238 266 290 273 267 265 255 236 257 264 256 260 277 252 252 196 203 220 217 226 212 231 256 246 261 270 276 281 289 290 290 291 297 301 300 300 302 308 319 320 315 305 300 298 299 295 296 298 298 302 301 300 307 311 308 305 314 321 316 311 307 301 292 276 253 239 223 213 202 200 198 190 182 183 185 181 186 191 194 198 194 193 201 200 190
266 262 243 244 245 254 250 252 264 264 238 249 266 269 250 253 227 215 209 198 218 227 231 229 247 262 262 272 277 282 282 279 282 287 287 288 292 297 301 302 317 316 310 306 302 300 297 298 300 301 304 302 295 298 304 308 308 314 321 314 310 308 305 304 299 286 258 246 223 217 211 209 205 198 191 188 188 189 191 192 195 199 200 197 199 198 176
237 262 257 259 249 244 260 265 271 272 273 272 261 245 239 220 202 194 201 171 222 215 240 235 246 267 274 272 274 274 273 277 283 285 286 285 289 283 280 294 303 298 297 296 297 301 300 300 308 310 305 302 300 298 299 304 319 324 315 308 304 301 298 297 292 284 268 246 234 222 210 204 205 204 201 196 197 198 193 195 193 200 196 199 201 200 183
244 265 277 274 266 273 269 266 263 258 256 259 262 245 208 188 210 252 282 202 227 215 241 257 262 275 277 271 268 274 280 282 283 282 285 286 283 288 294 297 300 293 298 296 294 296 294 298 307 308 303 298 298 300 305 319 325 315 305 299 298 293 293 291 285 278 263 252 232 231 222 213 217 211 200 199 208 216 214 202 201 196 195 204 201 197 188
258 257 260 256 270 269 266 251 251 259 248 234 246 215 203 209 230 262 283 283 225 214 247 250 261 263 277 284 285 283 281 279 283 287 288 288 288 288 288 293 293 291 287 287 292 293 290 295 299 298 300 299 297 295 306 312 308 301 299 297 295 286 286 287 283 281 272 256 241 231 227 221 220 229 229 222 214 210 213 206 213 213 205 206 194 184 190
256 253 255 254 257 274 270 279 279 297 305 213 231 229 223 228 256 311 300 292 303 294 279 230 257 268 273 280 291 284 280 279 278 279 284 288 290 291 298 302 297 293 293 294 295 291 291 297 297 296 296 292 288 292 311 306 301 295 293 291 286 281 280 278 281 283 276 264 249 233 230 226 218 221 223 228 226 222 217 205 209 216 217 215 202 196 189
260 264 264 263 267 263 272 272 300 11 355 178 228 246 35 12 303 292 287 283 288 292 296 291 256 271 285 284 288 283 283 280 280 281 280 279 280 286 290 288 289 294 296 295 293 292 295 297 297 297 294 290 288 302 314 297 291 291 288 286 284 283 283 281 279 277 272 265 253 238 234 222 218 214 214 218 225 224 220 216 217 216 218 217 214 207 201
254 255 267 275 267 268 267 328 88 79 44 29 28 2 351 314 314 334 295 287 277 282 291 294 296 283 282 285 279 276 280 283 283 285 286 286 284 284 286 288 288 289 289 288 286 286 290 293 293 291 289 285 288 306 304 295 289 284 280 275 275 277 275 276 275 270 264 259 249 237 232 221 218 212 213 212 213 213 218 219 216 215 215 216 215 211 203
270 292 298 304 316 272 278 330 134 56 359 15 343 324 322 339 318 309 289 286 289 288 285 286 291 292 280 277 280 278 278 279 286 289 286 285 287 286 283 283 286 287 284 284 284 283 285 286 285 284 283 281 290 303 295 288 279 267 266 264 266 268 273 272 269 269 267 257 248 237 227 223 218 214 215 215 215 204 192 189 210 215 216 214 212 207 204
53 15 9 319 290 274 66 24 310 353 337 323 323 316 329 315 309 296 293 290 284 283 275 275 275 280 284 275 277 276 275 285 289 284 282 282 281 283 286 288 287 285 284 284 282 281 283 285 283 281 278 281 295 289 278 276 274 271 267 264 268 270 274 277 276 272 266 261 252 238 230 220 220 216 216 215 209 206 196 192 190 192 189 202 209 205 200
55 31 38 230 267 308 344 338 329 307 312 318 336 323 316 325 322 313 302 299 290 274 267 260 272 283 287 287 286 288 285 281 281 286 287 281 281 285 287 289 288 287 284 281 280 282 284 280 277 276 276 282 286 279 278 274 269 273 289 298 295 288 285 282 279 273 266 263 251 238 228 223 215 213 211 205 203 206 203 197 195 188 188 188 186 200 196
20 0 7 290 286 297 308 298 298 319 322 326 315 315 330 333 313 299 292 295 300 301 295 295 283 280 287 294 298 293 291 287 282 280 281 284 288 290 292 291 287 284 281 280 281 282 281 278 278 278 279 289 292 288 288 288 286 286 284 279 277 275 275 276 279 282 285 278 260 236 224 219 211 209 206 205 204 202 198 196 192 189 183 169 163 182 192
345 329 323 322 334 350 334 343 340 327 324 327 331 323 348 330 310 305 300 303 308 301 299 306 303 296 298 296 292 290 288 288 288 289 288 289 291 292 291 291 290 281 273 270 271 280 280 280 281 281 285 292 283 283 283 280 275 274 272 270 267 268 269 269 272 272 269 269 264 246 232 216 209 203 201 201 200 200 197 194 190 182 177 173 173 175 174
320 314 295 336 358 356 355 318 320 309 314 322 331 321 313 301 287 294 300 307 308 299 301 301 299 298 297 288 288 288 287 285 284 283 284 284 286 287 287 288 286 289 290 288 287 282 276 280 276 277 287 285 279 276 271 271 272 271 269 271 273 271 271 270 268 265 265 263 254 237 217 206 198 196 199 197 197 198 197 190 187 184 179 174 174 174 170
318 308 306 4 353 332 323 326 320 318 319 322 325 318 321 323 312 304 303 302 297 299 302 302 298 295 293 294 291 289 287 285 284 282 282 283 282 282 278 274 272 272 276 281 285 285 284 281 280 283 283 280 276 273 274 279 285 285 282 281 277 280 283 287 290 274 267 255 243 220 206 194 195 191 194 196 196 196 189 186 186 183 181 177 177 174 166
353 350 349 346 337 334 321 327 335 317 324 320 311 307 307 302 291 291 292 296 300 299 294 288 290 291 295 294 291 290 289 287 284 284 285 285 282 281 280 280 276 275 275 277 279 278 281 282 284 287 287 290 292 292 286 281 279 277 280 279 278 277 275 274 268 274 274 274 251 213 200 192 194 188 196 193 191 189 188 188 183 180 179 178 169 170 167
7 245 273 297 289 296 310 308 311 299 301 296 292 302 301 296 292 290 293 293 290 289 289 292 293 295 295 294 291 289 290 291 290 286 281 284 286 287 282 282 282 280 276 276 280 283 283 282 289 293 293 288 283 283 286 286 281 275 273 271 271 271 269 266 266 263 264 254 235 204 196 195 191 191 189 186 187 187 186 182 177 174 170 167 167 158 172
293 282 280 278 285 284 286 289 300 302 302 303 305 298 281 290 294 290 291 292 293 295 296 295 294 294 293 291 291 289 285 280 282 286 288 288 285 284 285 284 285 288 290 290 288 287 286 286 285 284 285 287 290 287 282 276 273 272 269 267 266 265 264 262 260 255 255 248 214 203 195 193 193 186 182 181 183 183 180 177 174 170 165 160 156 158 163
296 287 287 280 276 272 275 276 280 283 287 289 290 297 300 299 297 295 296 294 295 294 296 295 295 294 291 290 288 287 284 282 282 282 285 285 286 288 293 299 303 303 299 295 290 288 290 288 289 291 293 291 289 284 279 277 272 270 267 263 259 258 257 257 256 253 251 237 214 201 194 189 180 181 175 177 175 174 173 169 167 161 157 152 147 155 156
269 274 278 281 279 277 276 277 277 284 284 284 289 295 294 294 292 291 291 292 294 293 293 294 293 290 286 285 284 283 280 282 286 287 288 293 302 310 308 302 300 297 297 295 296 301 298 296 296 297 298 291 289 283 282 280 277 271 265 261 254 253 251 252 248 249 242 220 202 189 172 167 167 165 167 167 168 164 162 158 149 143 144 145 154 139 109
283 281 282 281 283 280 275 272 275 276 281 282 280 277 283 290 294 294 294 293 293 293 291 289 285 283 283 284 283 285 285 287 292 304 314 313 312 306 301 299 299 298 295 290 298 300 296 296 299 299 293 289 284 283 280 280 277 274 267 262 254 254 252 249 247 231 209 179 162 154 158 161 157 157 156 159 152 151 147 138 138 139 141 141 114 101 116
290 280 276 278 280 279 282 280 275 270 270 279 285 286 284 285 289 292 292 291 290 290 290 288 288 290 290 292 294 301 310 320 318 311 308 308 309 305 297 295 289 288 284 290 295 296 296 295 295 294 291 286 287 284 283 283 282 274 262 256 259 252 252 229 207 165 156 146 149 150 147 147 145 145 143 140 129 122 120 125 131 133 127 111 112 118 114
292 294 291 294 289 288 287 286 282 279 275 271 280 287 291 293 292 291 290 291 289 292 293 292 294 297 306 312 319 319 316 315 314 311 307 307 306 303 301 296 296 296 298 301 302 295 296 297 299 295 292 291 289 288 289 296 303 306 307 316 330 20 26 61 80 102 105 109 109 109 111 114 115 119 115 112 117 117 121 124 125 120 109 104 104 111 113
289 293 294 289 289 287 286 289 290 285 285 283 277 278 284 286 289 291 291 291 295 295 293 301 311 312 320 324 320 315 314 313 310 308 307 307 307 311 309 306 314 319 311 310 307 306 306 306 303 300 300 300 294 304 305 319 329 336 344 360 20 36 50 57 67 71 84 92 95 102 106 107 105 105 106 108 108 113 117 119 119 116 118 118 115 113 112
293 289 289 289 288 289 288 286 288 292 288 283 282 283 283 281 283 284 288 292 294 299 311 316 321 323 322 319 317 313 313 313 313 310 309 309 308 311 309 307 320 317 319 319 318 315 312 313 308 306 311 316 310 325 339 345 351 352 10 18 33 37 54 55 64 65 69 74 79 87 88 96 101 99 100 103 106 111 112 110 106 105 105 110 117 123 126
294 295 293 294 291 291 291 292 292 289 290 288 285 282 282 285 286 288 289 291 304 315 319 324 325 322 320 320 319 319 318 318 318 314 313 308 302 284 287 302 315 318 323 326 323 320 322 318 323 322 329 334 339 347 354 2 2 10 22 29 37 42 51 55 61 66 71 80 83 82 88 97 98 104 104 104 107 111 116 119 120 117 114 114 118 118 121
293 294 293 293 295 292 290 290 288 289 289 289 291 293 293 291 290 287 294 311 315 322 327 326 326 325 327 327 326 327 327 329 325 324 320 319 319 315 306 315 321 324 333 335 329 329 329 332 333 342 341 354 360 5 6 10 14 21 32 38 44 47 52 57 58 62 69 75 76 85 88 90 95 101 106 111 111 104 102 104 107 108 109 113 114 119 108
295 293 295 293 290 292 290 287 288 289 290 292 294 292 291 286 287 299 309 312 320 326 325 325 329 332 332 332 330 324 319 317 317 323 328 331 327 325 338 333 332 336 340 345 340 340 339 343 354 2 11 9 13 11 15 16 20 26 31 41 50 54 57 57 62 63 67 68 72 78 80 82 87 92 94 95 99 105 106 108 106 115 122 120 117 110 101
296 295 292 295 293 288 284 284 284 287 288 290 291 286 279 288 313 311 312 318 322 319 316 320 329 331 333 330 327 323 319 317 317 316 314 320 314 312 324 332 335 342 347 349 345 347 347 348 1 11 19 26 22 19 20 19 24 26 35 36 46 53 63 65 68 71 70 77 81 81 86 91 90 93 99 103 102 103 102 105 108 101 85 95 102 106 105
299 300 293 289 288 286 287 287 285 286 285 285 281 300 320 319 314 316 316 315 314 313 311 317 329 334 335 336 335 335 337 333 326 335 336 331 322 323 334 337 342 347 353 352 352 352 358 358 6 12 16 20 26 28 29 37 36 40 35 43 40 51 53 60 65 70 75 81 83 87 89 93 97 97 97 103 105 108 113 115 108 113 116 117 113 115 110
299 296 293 292 291 291 294 295 294 288 287 296 313 313 314 316 318 318 319 317 318 321 328 345 345 342 339 337 331 331 324 332 325 323 346 340 333 331 335 343 345 352 352 352 355 354 1 6 8 11 15 17 16 22 22 28 37 45 51 51 55 55 59 66 62 66 69 72 80 90 94 94 93 95 99 98 86 83 92 111 112 105 94 98 90 84 103
296 289 288 288 287 287 291 288 292 299 311 311 312 309 316 315 319 320 324 330 336 347 350 355 349 347 340 339 335 332 324 319 301 290 315 325 326 332 335 343 349 355 358 357 359 357 3 9 12 14 12 12 15 17 25 31 38 45 49 54 56 57 60 61 67 73 79 77 80 78 82 83 85 92 90 79 91 89 97 100 100 105 110 107 104 98 99
300 299 301 301 297 296 296 305 307 311 311 312 312 314 316 322 328 340 342 344 354 350 346 347 349 344 339 337 332 329 321 323 313 307 311 324 331 338 344 346 349 357 3 3 1 1 360 6 13 14 15 13 16 18 19 20 23 27 36 36 46 53 50 56 65 64 68 74 75 79 79 84 86 86 91 88 86 91 90 89 87 89 90 92 96 103 82
310 306 296 295 290 286 289 299 311 317 316 322 317 327 333 347 347 342 347 357 354 350 344 341 338 342 341 337 329 330 330 332 332 335 338 340 343 347 351 355 357 2 2 6 11 5 5 9 11 14 16 17 20 21 24 23 27 30 31 35 35 39 40 42 51 60 63 69 76 74 76 80 80 86 84 90 91 92 90 93 93 97 97 103 101 103 82
319 306 281 287 299 309 315 314 312 330 333 331 325 330 347 353 346 357 1 9 1 346 345 334 334 343 351 341 338 339 339 343 346 345 349 349 354 355 354 1 6 4 6 10 7 8 12 9 10 15 19 24 22 24 23 27 31 32 31 34 35 37 39 40 41 50 51 52 54 60 58 51 60 69 66 64 71 77 76 74 75 67 54 50 47 59 70